Date,TemperatureHighF,TemperatureAvgF,TemperatureLowF,DewpointHighF,DewpointAvgF,DewpointLowF,HumidityHigh,HumidityAvg,HumidityLow,PressureMaxIn,PressureMinIn,WindSpeedMaxMPH,WindSpeedAvgMPH,GustSpeedMaxMPH,PrecipitationSumIn
2014-1-1,27.5,22.1,17.2,12.0,9.3,7.0,71,58,45,30.33,30.13,7,1,0,0.00
2014-1-2,21.8,13.2,1.6,16.0,10.0,-1.0,90,87,65,30.31,29.80,7,2,0,0.00
2014-1-3,13.5,6.0,1.1,9.0,0.3,-8.0,88,78,57,30.35,29.66,12,4,0,0.00
2014-1-4,27.1,14.8,-1.3,20.0,4.1,-8.0,82,64,34,30.45,30.21,11,1,0,0.02
2014-1-5,39.8,31.6,19.1,39.0,24.0,14.0,96,74,56,30.26,29.88,7,1,0,0.17
2014-1-6,58.0,44.8,28.8,58.0,42.1,18.0,99,91,65,29.86,29.22,9,2,0,0.29
2014-1-7,28.4,14.6,8.8,18.0,-2.3,-9.0,66,48,37,30.16,29.45,12,4,0,0.00
2014-1-8,21.3,14.3,7.7,5.0,0.1,-7.0,62,54,45,30.40,30.16,8,2,0,0.00
2014-1-9,29.4,20.5,15.9,12.0,8.7,5.0,82,61,42,30.58,30.36,8,1,0,0.00
2014-1-10,37.7,28.7,15.0,37.0,25.8,11.0,100,89,76,30.55,30.22,4,0,0,0.02
2014-1-11,59.7,50.0,36.2,59.0,49.2,35.0,99,97,93,30.21,29.23,14,1,0,0.42
2014-1-12,54.8,44.4,36.3,53.0,34.2,27.0,95,68,54,29.91,29.23,16,3,0,0.03
2014-1-13,54.7,42.6,31.4,47.0,32.3,26.0,92,69,40,30.07,29.85,6,1,0,0.00
2014-1-14,50.1,48.3,43.6,49.0,46.4,42.0,97,93,84,29.84,29.55,10,1,0,0.67
2014-1-15,49.2,40.9,34.8,42.0,37.4,34.0,97,88,65,29.97,29.70,3,0,0,0.01
2014-1-16,39.2,36.5,33.3,38.0,35.9,33.0,98,97,96,29.88,29.78,2,0,0,0.00
2014-1-17,46.7,39.5,34.3,38.0,30.9,22.0,98,75,40,29.93,29.85,7,1,0,0.00
2014-1-18,38.4,34.5,32.9,37.0,33.1,29.0,97,94,83,29.87,29.56,4,0,0,0.31
2014-1-19,34.8,32.1,30.0,32.0,27.6,23.0,97,84,68,29.66,29.48,14,2,0,0.11
2014-1-20,40.7,34.8,25.2,30.0,25.4,15.0,77,69,56,29.81,29.45,9,2,0,0.13
2014-1-21,24.4,14.8,11.3,14.0,5.2,-1.0,88,67,47,30.01,29.81,6,2,0,0.00
2014-1-22,17.4,11.7,7.7,8.0,0.7,-4.0,85,62,47,29.83,29.58,9,4,0,0.00
2014-1-23,22.3,12.4,4.9,2.0,-2.2,-5.0,66,53,36,30.09,29.84,9,2,0,0.01
2014-1-24,19.2,12.7,6.5,2.0,-1.8,-5.0,68,54,37,30.20,30.00,13,2,0,0.00
2014-1-25,38.4,27.9,15.4,29.0,18.9,3.0,89,69,56,29.99,29.28,11,2,0,0.03
2014-1-26,26.0,20.1,15.2,19.0,5.2,-4.0,78,54,37,29.84,29.28,15,3,0,0.00
2014-1-27,46.2,31.2,21.1,39.0,20.1,5.0,93,66,35,29.92,29.47,15,3,0,0.04
2014-1-28,20.8,17.0,12.3,5.0,-4.1,-10.0,51,40,31,30.25,29.93,14,3,0,0.00
2014-1-29,27.4,20.2,15.4,9.0,-0.3,-6.0,75,43,24,30.18,29.92,9,2,0,0.00
2014-1-30,32.3,22.3,14.1,14.0,5.6,-2.0,72,50,36,30.38,30.15,11,1,0,0.00
2014-1-31,42.6,33.3,22.0,25.0,19.4,12.0,85,59,36,30.14,29.96,10,1,0,0.00
2014-2-1,45.0,37.2,29.8,31.0,24.9,22.0,80,62,44,30.29,29.98,8,1,0,0.00
2014-2-2,54.7,41.8,32.8,43.0,36.0,30.0,95,81,52,29.99,29.80,9,1,0,0.03
2014-2-3,40.3,33.0,25.2,35.0,28.5,23.0,94,84,64,30.24,29.99,5,1,0,0.00
2014-2-4,36.2,28.4,21.3,26.0,21.8,18.0,94,77,55,30.40,30.23,6,1,0,0.15
2014-2-5,33.2,29.3,23.6,33.0,27.3,21.0,97,92,83,30.25,29.58,7,1,0,0.00
2014-2-6,29.9,21.9,18.1,22.0,15.9,12.0,92,78,54,30.21,29.89,7,1,0,0.17
2014-2-7,31.2,23.1,14.8,15.0,12.8,9.0,82,66,48,30.20,30.09,7,1,0,0.04
2014-2-8,29.2,23.5,15.6,14.0,8.0,3.0,78,53,36,30.24,30.07,8,1,0,0.02
2014-2-9,32.0,26.3,21.0,26.0,18.6,11.0,93,73,52,30.12,29.90,6,1,0,0.04
2014-2-10,29.8,23.1,14.8,24.0,14.4,8.0,93,71,48,30.15,29.84,11,2,0,0.02
2014-2-11,26.5,18.0,10.6,9.0,6.5,2.0,84,62,42,30.37,30.15,9,2,0,0.00
2014-2-12,29.6,17.8,6.6,16.0,4.7,-2.0,83,59,32,30.52,30.38,8,1,0,0.02
2014-2-13,34.6,29.6,18.8,34.0,27.7,15.0,97,92,82,30.36,28.98,13,2,0,0.01
2014-2-14,38.5,33.8,28.6,33.0,28.4,24.0,97,81,65,29.67,28.77,15,3,0,0.77
2014-2-15,35.9,31.1,26.5,30.0,27.3,23.0,96,86,64,29.80,29.41,9,1,0,0.07
2014-2-16,33.4,27.5,22.1,29.0,15.4,11.0,95,62,44,29.90,29.40,13,4,0,0.07
2014-2-17,29.3,20.8,12.7,11.0,1.0,-2.0,64,43,29,30.31,29.91,11,4,0,0.00
2014-2-18,33.4,23.2,10.4,33.0,18.4,3.0,97,82,64,30.32,29.83,11,2,0,0.00
2014-2-19,34.9,29.7,20.0,33.0,27.7,18.0,97,92,83,30.05,29.66,6,1,0,0.37
2014-2-20,48.7,39.3,32.0,34.0,31.1,26.0,97,75,43,30.17,29.77,5,1,0,0.39
2014-2-21,40.7,37.6,34.8,41.0,37.0,34.0,99,97,95,30.11,29.62,8,1,0,0.24
2014-2-22,54.4,43.2,33.9,36.0,30.6,25.0,98,66,33,29.91,29.79,8,1,0,0.01
2014-2-23,52.3,43.1,32.1,32.0,29.5,27.0,85,61,40,29.94,29.71,5,0,0,0.00
2014-2-24,41.1,33.4,23.4,32.0,15.8,8.0,76,49,36,29.89,29.68,17,3,0,0.00
2014-2-25,29.7,24.1,20.1,12.0,8.9,6.0,67,53,39,29.93,29.81,14,2,0,0.00
2014-2-26,31.5,21.7,13.7,14.0,5.9,-6.0,71,52,32,29.88,29.70,10,2,0,0.00
2014-2-27,30.5,19.7,9.4,22.0,5.3,-3.0,85,55,32,29.84,29.53,13,1,0,0.00
2014-2-28,25.6,17.2,9.0,-1.0,-5.2,-10.0,53,39,21,30.38,29.85,12,2,0,0.00
2014-3-1,37.2,25.3,10.5,25.0,11.3,-1.0,74,57,38,30.39,30.04,8,1,0,0.00
2014-3-2,39.8,34.5,30.6,27.0,23.8,17.0,80,65,57,30.03,29.91,5,1,0,0.00
2014-3-3,30.4,21.5,14.1,18.0,4.2,-3.0,60,48,37,30.24,29.93,13,2,0,0.00
2014-3-4,31.1,21.3,8.6,8.0,0.7,-4.0,60,42,29,30.33,30.20,5,1,0,0.00
2014-3-5,27.4,24.2,19.1,21.0,16.1,6.0,84,72,42,30.44,30.18,6,1,0,0.00
2014-3-6,30.2,19.8,10.1,13.0,4.7,-6.0,78,55,23,30.59,30.44,6,0,0,0.00
2014-3-7,36.8,26.5,11.2,29.0,19.5,8.0,88,76,54,30.45,29.90,5,0,0,0.00
2014-3-8,55.8,39.2,24.2,32.0,26.5,22.0,92,64,33,29.90,29.63,7,1,0,0.00
2014-3-9,42.7,34.2,27.8,22.0,13.9,8.0,62,45,26,29.88,29.80,11,2,0,0.00
2014-3-10,46.8,36.2,28.8,33.0,25.2,12.0,91,67,43,29.84,29.59,6,1,0,0.03
2014-3-11,59.6,45.6,36.5,37.0,33.4,29.0,93,66,33,29.67,29.45,10,1,0,0.00
2014-3-12,48.4,42.0,37.7,41.0,37.6,35.0,96,85,62,29.66,28.97,6,0,0,0.28
2014-3-13,37.2,22.7,17.5,36.0,15.1,1.0,96,74,47,29.87,28.95,20,5,0,0.05
2014-3-14,40.7,27.6,13.1,28.0,10.7,1.0,69,51,30,30.12,29.86,13,2,0,0.01
2014-3-15,57.9,45.3,37.7,40.0,33.0,26.0,87,64,40,29.86,29.60,13,2,0,0.01
2014-3-16,39.6,31.4,24.9,24.0,9.2,-1.0,65,41,23,30.14,29.82,12,4,0,0.00
2014-3-17,33.7,23.1,16.2,15.0,2.0,-5.0,79,42,23,30.14,30.00,7,1,0,0.00
2014-3-18,36.6,27.2,18.1,22.0,13.9,2.0,81,58,45,30.30,30.11,8,1,0,0.00
2014-3-19,41.7,33.1,23.2,34.0,26.9,20.0,89,78,61,30.34,29.94,11,2,0,0.00
2014-3-20,51.8,43.1,37.4,43.0,35.6,30.0,97,77,46,29.96,29.55,13,2,0,0.29
2014-3-21,43.7,38.9,32.8,28.0,24.3,23.0,67,57,45,29.97,29.68,15,4,0,0.00
2014-3-22,57.3,40.4,26.6,44.0,27.3,21.0,85,62,36,30.00,29.60,14,2,0,0.01
2014-3-23,44.3,36.5,25.1,26.0,18.0,3.0,71,49,28,30.02,29.84,11,2,0,0.00
2014-3-24,33.2,24.1,16.2,8.0,1.1,-1.0,52,38,24,30.11,29.99,12,3,0,0.00
2014-3-25,40.3,29.4,19.1,19.0,11.8,6.0,66,49,27,30.10,29.87,11,1,0,0.00
2014-3-26,34.4,31.1,24.9,20.0,11.7,2.0,67,45,32,29.95,29.52,21,6,0,0.00
2014-3-27,47.1,32.8,20.7,18.0,4.7,1.0,47,32,18,30.26,29.95,13,4,0,0.00
2014-3-28,60.4,47.0,36.0,49.0,37.8,18.0,91,72,47,30.21,29.89,9,2,0,0.03
2014-3-29,52.5,46.1,40.6,49.0,41.6,37.0,96,85,64,30.20,29.95,12,2,0,0.64
2014-3-30,42.1,40.0,35.9,41.0,39.0,35.0,97,96,94,29.94,29.57,9,3,0,1.43
2014-3-31,41.6,37.3,34.2,38.0,34.3,31.0,97,89,69,29.94,29.65,10,1,0,0.53
2014-4-1,54.9,42.1,33.5,34.0,31.2,28.0,81,66,45,30.06,29.94,9,1,0,0.00
2014-4-2,49.7,41.0,32.6,38.0,33.3,30.0,90,75,48,30.07,29.97,7,1,0,0.00
2014-4-3,56.9,42.8,32.0,34.0,29.9,26.0,92,63,33,30.09,29.98,10,2,0,0.00
2014-4-4,45.8,40.2,35.5,38.0,33.9,29.0,95,79,60,30.12,29.86,9,2,0,0.17
2014-4-5,52.8,43.4,38.1,43.0,35.6,25.0,98,77,48,29.87,29.63,16,3,0,0.22
2014-4-6,59.5,44.9,31.0,28.0,24.6,20.0,79,49,22,30.13,29.88,10,1,0,0.00
2014-4-7,59.9,48.4,36.8,42.0,30.4,21.0,93,53,26,30.18,29.86,6,1,0,0.03
2014-4-8,67.0,53.4,43.5,59.0,48.4,35.0,99,85,52,29.86,29.24,14,2,0,0.41
2014-4-9,58.0,48.3,37.4,38.0,29.8,13.0,87,53,27,29.91,29.45,13,2,0,0.00
2014-4-10,63.2,47.5,30.6,37.0,24.4,15.0,65,43,21,30.10,29.91,10,2,0,0.00
2014-4-11,70.9,59.0,49.1,52.0,43.9,37.0,79,59,40,29.96,29.85,6,1,0,0.00
2014-4-12,71.2,58.0,46.6,48.0,40.1,32.0,95,58,26,30.15,29.91,10,1,0,0.04
2014-4-13,63.5,52.5,45.9,52.0,42.8,39.0,89,71,51,30.22,29.96,6,0,0,0.04
2014-4-14,78.0,64.0,44.7,59.0,53.7,41.0,96,71,49,29.97,29.83,11,2,0,0.00
2014-4-15,70.3,61.7,45.8,61.0,58.4,44.0,97,89,70,29.85,29.52,9,2,0,0.64
2014-4-16,45.5,37.5,30.7,41.0,23.8,16.0,96,61,34,30.55,29.67,16,3,0,0.38
2014-4-17,42.0,35.5,29.8,28.0,24.1,18.0,82,64,51,30.76,30.56,13,2,0,0.00
2014-4-18,45.0,37.3,29.3,36.0,31.5,27.0,92,80,65,30.61,30.20,6,1,0,0.00
2014-4-19,63.5,50.0,37.2,38.0,33.9,27.0,92,58,33,30.35,30.11,10,2,0,0.00
2014-4-20,52.2,44.2,35.0,36.0,28.6,21.0,78,57,30,30.47,30.30,8,2,0,0.00
2014-4-21,73.3,54.4,35.2,41.0,33.1,26.0,85,50,17,30.29,29.79,6,1,0,0.00
2014-4-22,75.6,60.7,48.7,53.0,45.0,41.0,93,60,31,29.79,29.42,8,1,0,0.06
2014-4-23,56.2,51.9,46.8,53.0,46.1,35.0,97,82,60,29.54,29.37,17,4,0,0.28
2014-4-24,58.2,49.6,41.9,35.0,28.3,22.0,65,45,32,29.86,29.54,24,7,0,0.00
2014-4-25,60.7,51.0,41.0,41.0,32.5,28.0,67,51,30,29.95,29.77,7,1,0,0.00
2014-4-26,50.3,45.2,42.4,43.0,39.9,34.0,94,82,54,29.83,29.74,4,0,0,0.20
2014-4-27,51.1,44.8,41.1,45.0,42.1,40.0,96,90,79,29.98,29.80,4,0,0,0.16
2014-4-28,57.1,48.2,40.2,43.0,39.9,37.0,88,74,54,30.18,29.94,7,1,0,0.00
2014-4-29,46.4,43.2,42.0,41.0,37.2,35.0,85,79,74,30.48,30.18,9,3,0,0.00
2014-4-30,45.4,42.5,41.0,42.0,39.3,37.0,97,88,81,30.49,30.13,12,3,0,0.21
2014-5-1,64.7,50.5,42.4,60.0,49.4,42.0,99,96,81,30.12,29.61,6,1,0,0.57
2014-5-2,70.7,59.8,48.4,55.0,43.8,38.0,99,59,32,29.74,29.60,10,1,0,0.01
2014-5-3,70.2,57.9,46.0,49.0,43.2,41.0,83,60,39,29.81,29.67,6,1,0,0.00
2014-5-4,61.6,55.7,49.2,47.0,41.8,37.0,79,61,45,29.66,29.48,17,3,0,0.00
2014-5-5,64.9,56.7,49.6,46.0,42.4,40.0,76,60,44,29.80,29.55,10,3,0,0.00
2014-5-6,64.1,54.7,44.2,41.0,36.7,28.0,83,55,29,29.98,29.77,12,2,0,0.00
2014-5-7,72.2,56.4,44.8,42.0,35.0,29.0,70,47,20,30.12,29.98,6,1,0,0.00
2014-5-8,68.5,55.9,45.2,49.0,40.4,34.0,86,59,33,30.14,30.03,5,0,0,0.00
2014-5-9,55.2,53.7,51.8,54.0,51.3,49.0,96,91,86,30.19,30.03,1,0,0,0.02
2014-5-10,81.8,67.9,54.4,67.0,61.5,51.0,97,82,46,30.03,29.69,7,1,0,0.40
2014-5-11,82.3,70.4,62.1,61.0,44.6,34.0,90,45,18,29.96,29.72,10,2,0,0.00
2014-5-12,89.7,73.4,54.9,58.0,46.7,41.0,70,42,21,30.05,29.89,6,1,0,0.00
2014-5-13,56.1,50.5,46.0,47.0,43.0,38.0,82,76,69,30.29,30.07,3,0,0,0.00
2014-5-14,61.6,54.4,46.7,56.0,48.6,42.0,88,81,69,30.29,30.20,5,0,0,0.00
2014-5-15,80.2,66.9,59.6,66.0,61.0,56.0,94,82,62,30.24,30.15,5,0,0,0.00
2014-5-16,75.1,65.9,61.6,66.0,62.3,58.0,98,88,69,30.15,29.93,2,0,0,0.21
2014-5-17,78.5,68.0,59.1,65.0,54.7,39.0,98,68,32,30.00,29.80,6,1,0,0.50
2014-5-18,68.0,58.9,51.0,49.0,44.4,39.0,70,59,46,30.05,29.95,6,0,0,0.00
2014-5-19,67.6,57.4,50.3,50.0,40.8,36.0,93,56,35,30.02,29.94,11,1,0,0.09
2014-5-20,72.0,59.2,49.3,51.0,48.7,44.0,96,71,40,29.95,29.89,5,0,0,0.01
2014-5-21,71.1,58.6,48.3,56.0,52.0,47.0,96,80,57,29.95,29.89,4,0,0,0.00
2014-5-22,58.8,55.1,52.2,58.0,53.5,51.0,98,94,83,29.91,29.82,2,0,0,0.14
2014-5-23,58.4,54.9,52.1,55.0,52.6,50.0,98,92,81,29.93,29.82,2,0,0,0.04
2014-5-24,67.0,56.8,51.5,53.0,50.9,49.0,97,82,56,30.00,29.90,1,0,0,0.12
2014-5-25,67.4,58.4,50.9,58.0,54.1,50.0,98,86,66,30.04,29.95,1,0,0,0.00
2014-5-26,79.8,67.7,54.8,63.0,57.7,53.0,93,73,49,29.95,29.73,4,1,0,0.01
2014-5-27,70.2,58.8,48.6,61.0,54.4,48.0,97,86,71,29.91,29.74,4,0,0,0.59
2014-5-28,49.9,48.1,42.7,49.0,46.8,41.0,98,95,88,30.16,29.85,5,0,0,0.06
2014-5-29,63.8,51.9,41.0,52.0,44.9,40.0,98,79,57,30.19,30.11,4,0,0,0.00
2014-5-30,71.5,57.2,46.6,57.0,50.6,45.0,96,80,53,30.11,29.94,2,0,0,0.14
2014-5-31,66.6,56.3,49.2,52.0,46.9,29.0,97,74,26,30.23,30.00,2,0,0,0.00
2014-6-1,72.7,61.2,49.6,52.0,48.0,40.0,91,64,42,30.29,30.18,4,0,0,0.00
2014-6-2,88.2,71.5,54.9,57.0,51.1,46.0,72,51,27,30.18,29.93,4,0,0,0.00
2014-6-3,74.8,65.8,57.8,60.0,55.8,51.0,86,71,59,29.96,29.85,4,0,0,0.00
2014-6-4,61.6,58.9,56.4,57.0,55.5,51.0,96,88,69,29.85,29.73,0,0,0,0.08
2014-6-5,60.3,58.8,55.2,60.0,58.1,55.0,99,97,95,29.74,29.58,2,0,0,0.59
2014-6-6,77.1,65.2,54.8,59.0,56.4,54.0,99,76,48,29.81,29.63,5,1,0,0.01
2014-6-7,89.1,72.3,58.1,62.0,57.6,54.0,87,63,34,29.87,29.80,5,0,0,0.00
2014-6-8,85.5,74.3,63.7,63.0,59.8,56.0,79,62,42,29.89,29.80,3,0,0,0.00
2014-6-9,82.2,72.5,65.7,65.0,59.4,54.0,76,64,43,29.93,29.84,8,0,0,0.00
2014-6-10,83.7,69.0,60.6,70.0,63.8,56.0,94,84,64,30.05,29.87,3,0,0,0.60
2014-6-11,71.1,62.0,56.5,59.0,56.1,52.0,94,81,63,30.15,30.05,3,0,0,0.00
2014-6-12,66.1,51.9,59.3,60.0,31.3,-99.9,89,70,79,30.12,30.02,2,-168,0,0.00
2014-6-13,64.3,61.2,59.2,64.0,60.2,58.0,99,96,89,30.02,29.73,2,0,0,0.56
2014-6-14,77.6,66.2,59.4,67.0,61.4,54.0,99,86,63,29.84,29.75,9,0,0,0.05
2014-6-15,81.9,69.2,56.7,60.0,55.2,51.0,88,63,42,30.00,29.84,15,1,0,0.00
2014-6-16,77.4,68.1,58.8,57.0,53.0,50.0,76,60,42,30.09,29.97,3,0,0,0.00
2014-6-17,90.0,75.7,63.0,73.0,65.1,55.0,88,70,53,30.00,29.81,4,0,0,0.01
2014-6-18,87.3,78.6,70.6,69.0,65.9,62.0,91,67,46,29.87,29.66,10,2,0,0.01
2014-6-19,86.1,75.6,66.0,64.0,56.5,41.0,80,55,26,29.91,29.83,5,0,0,0.00
2014-6-20,78.8,67.8,55.8,51.0,46.5,43.0,78,49,29,29.92,29.82,9,1,0,0.00
2014-6-21,78.0,64.5,53.8,55.0,49.5,45.0,80,60,37,29.91,29.82,5,0,0,0.00
2014-6-22,75.2,65.1,53.7,55.0,50.9,47.0,80,61,45,29.98,29.87,2,0,0,0.00
2014-6-23,79.4,67.5,53.5,60.0,54.6,49.0,95,66,43,30.12,29.98,4,0,0,0.00
2014-6-24,87.8,73.0,61.7,64.0,58.2,51.0,78,61,44,30.12,29.95,6,1,0,0.00
2014-6-25,91.7,77.8,66.7,73.0,66.3,57.0,86,69,51,29.96,29.80,6,1,0,0.00
2014-6-26,78.7,70.5,60.5,73.0,66.9,58.0,98,88,77,29.95,29.73,2,0,0,0.58
2014-6-27,80.9,67.3,56.7,58.0,52.3,44.0,97,63,33,30.15,29.95,1,0,0,0.00
2014-6-28,86.7,71.0,55.7,62.0,54.5,47.0,85,59,28,30.21,30.15,2,0,0,0.09
2014-6-29,90.6,74.9,59.3,63.0,58.8,53.0,93,61,28,30.20,30.04,4,0,0,0.00
2014-6-30,92.2,78.1,65.4,67.0,63.0,57.0,82,62,41,30.05,29.85,6,1,0,0.00
2014-7-1,89.8,79.5,69.9,74.0,69.0,62.0,88,71,57,29.88,29.73,6,1,0,0.00
2014-7-2,95.6,82.4,73.8,78.0,72.9,68.0,87,74,55,29.86,29.73,4,1,0,0.00
2014-7-3,95.7,81.6,70.3,77.0,73.3,67.0,95,77,53,29.96,29.82,15,0,0,0.37
2014-7-4,75.5,69.3,63.8,71.0,67.9,63.0,98,95,83,29.94,29.74,2,0,0,1.59
2014-7-5,82.0,70.1,58.1,64.0,54.7,45.0,98,63,34,29.94,29.70,10,2,0,0.40
2014-7-6,87.2,76.1,64.3,62.0,55.7,50.0,70,51,34,29.94,29.80,12,1,0,0.00
2014-7-7,90.6,76.7,70.2,73.0,67.5,62.0,95,75,50,29.82,29.63,10,1,0,0.42
2014-7-8,92.6,80.0,70.8,73.0,70.6,68.0,96,75,50,29.74,29.63,8,1,0,0.00
2014-7-9,90.5,80.8,73.6,71.0,67.8,64.0,87,66,43,29.88,29.59,7,1,0,0.00
2014-7-10,84.5,75.4,67.8,66.0,61.2,57.0,88,63,43,30.08,29.88,5,0,0,0.00
2014-7-11,81.7,71.2,63.6,62.0,58.8,54.0,87,67,41,30.18,30.08,3,0,0,0.00
2014-7-12,87.1,74.0,60.7,67.0,62.8,57.0,94,71,44,30.17,30.05,1,0,0,0.00
2014-7-13,88.9,77.7,68.6,69.0,64.4,60.0,84,65,42,30.06,29.84,9,1,0,0.00
2014-7-14,86.7,77.3,73.2,75.0,72.2,69.0,96,85,63,29.86,29.80,3,0,0,0.12
2014-7-15,88.7,79.3,73.7,78.0,74.6,72.0,96,86,69,29.81,29.68,8,1,0,0.00
2014-7-16,76.2,73.8,69.3,74.0,72.4,69.0,99,95,89,29.79,29.70,4,0,0,2.02
2014-7-17,84.7,72.1,62.3,68.0,62.5,59.0,98,74,44,30.01,29.79,4,0,0,0.00
2014-7-18,82.0,71.5,62.2,61.0,59.2,57.0,89,67,44,30.17,30.02,5,0,0,0.00
2014-7-19,76.9,69.0,62.0,66.0,63.1,60.0,96,82,65,30.21,30.16,4,0,0,0.00
2014-7-20,80.0,68.9,59.8,64.0,61.1,58.0,95,77,54,30.17,30.09,1,0,0,0.00
2014-7-21,82.2,68.7,60.8,66.0,62.6,59.0,97,82,52,30.15,30.09,4,0,0,0.00
2014-7-22,90.1,76.5,62.0,73.0,67.6,61.0,97,76,50,30.10,29.93,3,0,0,0.00
2014-7-23,94.4,81.5,71.7,75.0,71.5,67.0,86,73,52,29.93,29.67,5,1,0,0.00
2014-7-24,79.0,72.5,64.3,70.0,66.7,63.0,94,82,65,29.85,29.69,5,0,0,0.00
2014-7-25,85.0,71.9,59.4,63.0,59.0,54.0,94,66,42,29.93,29.85,3,0,0,0.00
2014-7-26,86.1,74.6,63.6,65.0,61.8,58.0,89,67,39,29.92,29.81,5,1,0,0.00
2014-7-27,78.5,72.3,68.3,73.0,69.1,65.0,97,90,73,29.84,29.61,5,0,0,0.29
2014-7-28,86.6,75.8,68.4,74.0,69.5,63.0,99,82,62,29.63,29.38,8,1,0,1.34
2014-7-29,80.0,70.1,63.2,64.0,60.7,58.0,87,73,50,29.88,29.49,9,1,0,0.00
2014-7-30,81.0,69.0,58.2,62.0,58.5,54.0,96,71,42,29.99,29.88,4,0,0,0.00
2014-7-31,84.0,72.1,58.6,64.0,60.7,56.0,95,69,47,30.11,29.99,4,0,0,0.00
2014-8-1,82.5,74.1,66.1,72.0,67.0,63.0,93,79,63,30.16,30.11,5,0,0,0.00
2014-8-2,72.6,68.6,63.9,69.0,64.1,60.0,94,85,78,30.18,30.07,1,0,0,0.01
2014-8-3,76.8,66.8,61.4,66.0,62.4,60.0,95,86,66,30.09,30.00,2,0,0,0.00
2014-8-4,84.7,73.2,62.0,70.0,66.6,61.0,98,81,56,30.00,29.93,2,0,0,0.00
2014-8-5,88.5,76.8,66.9,72.0,69.2,66.0,97,79,55,29.97,29.82,0,0,0,0.00
2014-8-6,84.6,75.6,67.8,68.0,63.5,55.0,88,68,38,29.82,29.72,5,0,0,0.00
2014-8-7,79.4,68.7,58.4,63.0,58.3,55.0,96,71,48,29.88,29.78,6,0,0,0.13
2014-8-8,86.2,70.3,57.5,61.0,58.1,56.0,95,69,37,29.96,29.88,5,0,0,0.00
2014-8-9,84.0,72.7,60.3,64.0,60.2,57.0,90,67,46,30.03,29.95,3,0,0,0.00
2014-8-10,87.6,73.0,64.5,64.0,61.1,58.0,90,68,37,30.08,30.02,3,0,0,0.00
2014-8-11,89.4,75.1,62.9,67.0,62.6,59.0,92,68,43,30.10,30.03,2,0,0,0.00
2014-8-12,84.3,72.9,62.9,68.0,64.0,60.0,95,75,49,30.07,29.98,6,0,0,0.00
2014-8-13,69.3,66.3,63.1,67.0,65.2,63.0,99,96,87,29.97,29.55,4,0,0,1.43
2014-8-14,77.2,66.8,58.7,63.0,57.3,52.0,98,74,42,29.82,29.61,8,1,0,0.00
2014-8-15,74.8,64.6,57.6,57.0,55.4,54.0,94,74,50,29.87,29.78,5,0,0,0.01
2014-8-16,78.9,69.3,58.9,59.0,55.7,54.0,85,64,44,29.92,29.86,5,1,0,0.00
2014-8-17,80.0,70.9,62.7,64.0,60.9,56.0,91,71,57,29.86,29.70,7,0,0,0.00
2014-8-18,80.0,68.3,60.0,58.0,55.0,52.0,86,65,40,29.83,29.73,8,1,0,0.00
2014-8-19,81.1,65.4,53.6,60.0,55.1,51.0,91,71,46,29.90,29.82,6,0,0,0.00
2014-8-20,79.3,66.4,55.6,63.0,58.9,54.0,96,79,50,30.01,29.90,1,0,0,0.00
2014-8-21,77.4,66.5,56.6,67.0,62.2,56.0,98,87,67,30.05,30.00,0,0,0,0.00
2014-8-22,75.8,67.4,61.9,66.0,63.1,61.0,97,86,63,30.05,30.01,4,0,0,0.08
2014-8-23,75.9,66.0,58.3,63.0,59.2,55.0,96,80,54,30.08,30.03,2,0,0,0.00
2014-8-24,82.9,69.0,58.2,62.0,58.3,56.0,93,71,44,30.10,30.05,0,0,0,0.00
2014-8-25,88.5,73.7,63.4,67.0,63.2,60.0,90,71,46,30.10,30.04,1,0,0,0.00
2014-8-26,89.0,75.1,63.2,71.0,66.0,62.0,96,75,49,30.11,29.97,0,0,0,0.00
2014-8-27,92.0,78.0,66.6,75.0,68.0,62.0,95,73,53,29.99,29.78,6,1,0,0.17
2014-8-28,81.9,72.7,64.6,71.0,59.8,50.0,96,67,39,29.93,29.74,6,1,0,0.00
2014-8-29,73.4,64.7,57.5,60.0,55.6,51.0,86,73,57,30.22,29.93,4,0,0,0.00
2014-8-30,82.9,67.7,55.1,63.0,58.4,54.0,98,75,44,30.25,30.09,6,0,0,0.00
2014-8-31,84.7,75.9,66.6,75.0,70.3,62.0,97,83,71,30.08,29.89,7,1,0,0.49
2014-9-1,90.6,77.6,70.8,75.0,72.0,70.0,99,84,53,29.93,29.84,4,0,0,0.01
2014-9-2,93.6,78.8,71.4,78.0,73.7,70.0,98,85,53,29.87,29.68,5,0,0,0.26
2014-9-3,86.5,76.2,69.6,73.0,64.3,58.0,92,69,42,30.02,29.64,6,1,0,0.00
2014-9-4,86.6,74.2,60.8,64.0,61.1,57.0,93,66,38,30.14,30.02,6,0,0,0.00
2014-9-5,91.7,78.2,65.6,73.0,68.2,63.0,91,73,49,30.10,29.92,9,1,0,0.00
2014-9-6,92.3,79.6,67.8,76.0,72.8,66.0,96,81,57,29.92,29.68,5,1,0,0.62
2014-9-7,79.2,67.6,59.7,65.0,60.0,51.0,96,79,38,30.15,29.86,5,0,0,0.04
2014-9-8,75.1,64.1,56.5,59.0,55.8,52.0,95,76,56,30.34,30.16,3,0,0,0.00
2014-9-9,70.4,64.6,57.7,60.0,56.2,53.0,94,75,55,30.31,30.14,6,0,0,0.00
2014-9-10,72.9,64.2,59.3,63.0,60.6,58.0,98,88,70,30.14,29.98,4,0,0,0.00
2014-9-11,80.3,70.6,62.5,70.0,65.3,61.0,96,84,69,29.99,29.71,7,1,0,0.00
2014-9-12,73.5,63.3,55.6,62.0,53.8,49.0,86,72,52,30.18,29.83,6,0,0,0.00
2014-9-13,67.1,58.3,49.1,59.0,53.5,46.0,97,84,67,30.23,30.05,3,0,0,0.19
2014-9-14,68.4,57.7,50.8,58.0,49.5,45.0,97,76,46,30.18,30.05,8,1,0,0.00
2014-9-15,68.4,55.4,45.1,51.0,47.0,43.0,92,76,47,30.19,30.05,3,0,0,0.00
2014-9-16,65.9,57.9,51.5,58.0,53.9,49.0,95,87,75,30.05,29.90,4,0,0,0.00
2014-9-17,75.5,59.5,50.9,56.0,52.2,49.0,98,79,39,29.96,29.88,2,0,0,0.00
2014-9-18,76.4,61.0,47.9,54.0,50.0,44.0,96,70,43,30.09,29.87,5,0,0,0.00
2014-9-19,61.1,50.7,43.4,43.0,38.8,36.0,84,65,46,30.38,30.10,2,0,0,0.00
2014-9-20,73.4,58.2,41.0,58.0,49.9,39.0,95,76,57,30.35,30.04,4,0,0,0.00
2014-9-21,83.1,69.8,61.0,72.0,65.5,57.0,98,86,67,30.04,29.49,5,0,0,0.00
2014-9-22,73.2,65.8,51.8,68.0,54.3,41.0,97,69,42,30.03,29.47,16,2,0,0.00
2014-9-23,72.9,57.0,42.9,51.0,45.5,40.0,92,68,42,30.37,30.03,4,0,0,0.00
2014-9-24,67.8,58.8,51.4,57.0,53.1,49.0,92,82,63,30.58,30.38,2,0,0,0.00
2014-9-25,64.4,56.9,50.1,55.0,52.3,49.0,95,85,72,30.50,30.20,1,0,0,0.00
2014-9-26,77.1,61.1,51.8,59.0,54.2,49.0,93,79,52,30.19,30.09,2,0,0,0.00
2014-9-27,88.0,69.1,55.2,61.0,58.0,53.0,94,71,39,30.13,30.07,5,0,0,0.00
2014-9-28,89.6,71.6,56.7,67.0,62.2,56.0,98,75,45,30.11,29.92,6,0,0,0.00
2014-9-29,79.9,66.0,57.5,64.0,60.7,56.0,96,84,54,29.97,29.89,4,0,0,0.00
2014-9-30,57.4,56.5,56.0,56.0,55.6,55.0,98,97,96,30.00,29.94,3,0,0,0.15
2014-10-1,57.8,57.1,56.6,57.0,56.7,56.0,98,98,97,30.06,29.96,4,0,0,0.83
2014-10-2,56.9,54.6,49.7,56.0,53.5,49.0,98,96,88,30.13,30.05,4,0,0,0.26
2014-10-3,56.9,52.3,46.5,54.0,50.5,46.0,100,94,83,30.09,29.85,4,0,0,0.01
2014-10-4,62.1,58.1,54.0,62.0,57.8,54.0,100,98,95,29.85,29.48,2,0,0,0.22
2014-10-5,64.9,55.2,44.3,63.0,46.6,40.0,100,76,41,29.90,29.49,6,1,0,0.00
2014-10-6,70.8,54.5,41.1,52.0,44.7,40.0,95,73,38,30.10,29.90,7,0,0,0.00
2014-10-7,75.2,64.4,54.7,63.0,58.3,52.0,98,82,54,30.10,29.93,5,0,0,0.00
2014-10-8,74.8,67.4,58.6,64.0,56.7,45.0,96,71,45,29.92,29.64,6,1,0,0.00
2014-10-9,66.8,57.2,47.8,45.0,40.9,38.0,82,56,37,29.94,29.81,7,1,0,0.00
2014-10-10,64.9,54.9,47.6,44.0,41.0,39.0,80,61,43,30.08,29.94,5,1,0,0.00
2014-10-11,51.7,47.5,42.4,49.0,44.7,41.0,97,90,80,30.08,30.01,0,0,0,0.29
2014-10-12,65.3,50.4,40.4,45.0,42.8,39.0,98,78,44,30.25,30.07,5,0,0,0.00
2014-10-13,63.8,53.8,41.1,56.0,48.1,40.0,97,82,65,30.31,30.20,5,0,0,0.00
2014-10-14,79.3,68.3,59.7,67.0,62.4,56.0,93,82,61,30.20,30.10,5,0,0,0.00
2014-10-15,82.5,70.3,60.7,70.0,65.4,60.0,99,85,60,30.10,29.92,8,0,0,0.00
2014-10-16,68.8,65.4,62.7,68.0,64.7,62.0,99,97,94,29.91,29.60,1,0,0,0.62
2014-10-17,74.5,65.1,60.1,62.0,58.6,54.0,99,82,50,29.64,29.54,10,1,0,0.01
2014-10-18,73.0,62.5,57.6,62.0,57.2,51.0,96,84,64,29.61,29.43,8,0,0,0.01
2014-10-19,57.1,51.2,43.9,50.0,39.1,29.0,84,64,49,29.89,29.54,6,2,0,0.00
2014-10-20,59.4,47.7,36.4,43.0,33.6,27.0,77,60,39,30.01,29.90,6,1,0,0.00
2014-10-21,63.1,54.9,46.4,58.0,52.0,43.0,97,90,77,29.95,29.85,7,0,0,0.00
2014-10-22,55.4,51.8,50.3,55.0,50.8,49.0,99,96,95,29.97,29.74,12,2,0,0.42
2014-10-23,54.4,51.8,49.6,54.0,51.1,49.0,98,97,95,29.72,29.54,11,2,0,2.69
2014-10-24,53.5,50.4,46.7,50.0,47.8,44.0,98,91,79,29.68,29.60,4,0,0,0.04
2014-10-25,67.4,54.4,43.6,49.0,45.3,42.0,93,74,44,29.70,29.43,7,0,0,0.00
2014-10-26,60.2,53.8,45.0,49.0,43.4,38.0,82,69,50,29.65,29.39,12,1,0,0.00
2014-10-27,64.0,52.3,44.0,43.0,41.6,40.0,87,69,44,29.97,29.65,9,1,0,0.00
2014-10-28,61.8,51.1,40.6,55.0,47.5,39.0,96,88,73,30.03,29.88,2,0,0,0.00
2014-10-29,75.7,59.1,50.1,64.0,54.4,45.0,99,86,57,29.88,29.70,6,0,0,0.04
2014-10-30,60.1,48.8,40.7,49.0,42.4,39.0,97,80,54,29.94,29.81,6,0,0,0.00
2014-10-31,53.2,47.3,40.4,42.0,39.7,38.0,95,75,63,30.00,29.91,2,0,0,0.00
2014-11-1,47.1,43.1,38.7,44.0,39.6,36.0,96,88,70,29.89,29.72,8,1,0,0.57
2014-11-2,41.2,38.7,33.8,37.0,30.6,18.0,96,76,41,29.77,29.57,15,4,0,0.38
2014-11-3,53.7,42.9,35.0,35.0,21.2,11.0,71,45,18,30.00,29.76,16,2,0,0.00
2014-11-4,62.1,49.8,40.9,46.0,38.5,32.0,85,66,37,30.08,29.93,1,0,0,0.00
2014-11-5,65.9,55.5,43.7,50.0,43.4,37.0,85,66,42,30.07,29.90,6,1,0,0.00
2014-11-6,50.8,47.9,44.5,49.0,44.9,38.0,98,89,75,30.05,29.42,1,0,0,0.42
2014-11-7,49.9,44.9,39.4,48.0,38.2,26.0,98,79,58,29.73,29.40,20,3,0,0.01
2014-11-8,50.5,41.3,34.5,34.0,27.4,24.0,76,59,38,29.90,29.73,8,1,0,0.00
2014-11-9,57.3,46.7,37.7,39.0,36.4,34.0,85,68,49,29.95,29.82,4,0,0,0.00
2014-11-10,62.0,45.6,33.4,44.0,36.8,32.0,96,75,38,30.14,29.96,6,0,0,0.00
2014-11-11,65.5,51.1,38.7,54.0,47.2,37.0,98,87,63,30.15,29.92,4,0,0,0.00
2014-11-12,62.6,54.2,44.6,58.0,50.2,36.0,98,87,56,29.94,29.79,5,0,0,0.00
2014-11-13,52.2,43.7,34.3,37.0,32.1,28.0,92,65,40,30.03,29.90,7,0,0,0.08
2014-11-14,44.4,36.7,30.8,36.0,29.2,20.0,100,76,43,30.05,29.84,10,1,0,0.24
2014-11-15,40.2,31.8,27.2,26.0,20.4,17.0,91,65,39,30.28,30.04,12,1,0,0.00
2014-11-16,44.3,35.8,25.3,31.0,25.2,19.0,84,67,44,30.33,30.09,4,0,0,0.00
2014-11-17,47.1,41.1,37.0,47.0,39.1,31.0,100,93,68,30.07,29.38,3,0,0,1.49
2014-11-18,41.0,34.8,26.4,41.0,21.5,7.0,98,62,34,29.86,29.39,13,2,0,0.00
2014-11-19,37.7,29.6,23.4,18.0,11.3,8.0,58,47,35,30.08,29.87,10,2,0,0.00
2014-11-20,48.0,37.2,29.9,26.0,21.2,17.0,70,54,37,30.01,29.68,13,2,0,0.00
2014-11-21,35.7,30.2,25.6,20.0,13.2,8.0,65,50,39,30.36,29.85,14,3,0,0.00
2014-11-22,44.5,34.2,23.8,25.0,15.2,9.0,67,48,25,30.37,30.00,11,2,0,0.00
2014-11-23,60.0,49.0,41.8,43.0,35.0,25.0,76,59,50,30.09,30.00,8,1,0,0.00
2014-11-24,66.3,57.8,42.6,64.0,55.1,37.0,98,91,76,30.04,29.51,10,1,0,0.26
2014-11-25,63.1,56.9,45.0,57.0,43.4,31.0,96,65,34,30.06,29.63,6,1,0,0.00
2014-11-26,47.6,39.9,33.3,38.0,33.5,31.0,96,80,54,30.14,29.62,8,1,0,1.24
2014-11-27,36.7,33.9,30.6,33.0,31.4,28.0,96,91,84,29.95,29.61,9,1,0,0.25
2014-11-28,35.3,30.0,25.1,29.0,24.6,19.0,95,81,62,30.16,29.93,8,2,0,0.03
2014-11-29,34.4,27.6,19.0,25.0,18.6,15.0,87,69,51,30.29,30.16,7,0,0,0.05
2014-11-30,56.7,47.1,32.8,45.0,38.8,26.0,90,74,54,30.21,29.97,9,1,0,0.31
2014-12-1,63.8,52.9,39.8,49.0,42.7,29.0,77,69,59,30.39,29.94,9,2,0,0.00
2014-12-2,40.5,36.2,32.6,39.0,26.9,20.0,95,70,59,30.65,30.36,9,2,0,0.08
2014-12-3,51.0,43.8,35.5,50.0,41.9,27.0,99,93,61,30.33,29.81,10,1,0,0.55
2014-12-4,43.3,36.5,28.3,28.0,23.8,17.0,76,61,46,30.50,30.02,13,2,0,0.00
2014-12-5,41.6,34.2,24.1,38.0,26.3,16.0,93,73,63,30.63,30.39,6,0,0,0.09
2014-12-6,45.7,39.9,37.4,45.0,39.2,37.0,98,97,93,30.38,30.09,7,1,0,0.98
2014-12-7,37.9,32.3,20.4,37.0,20.0,0.0,97,64,31,30.64,30.18,8,2,0,0.10
2014-12-8,26.9,21.8,18.1,25.0,14.7,3.0,93,75,47,30.71,30.46,9,1,0,0.00
2014-12-9,49.3,41.7,27.2,49.0,41.0,26.0,99,97,94,30.45,29.44,14,2,0,2.77
2014-12-10,46.4,40.4,37.9,46.0,39.6,37.0,98,97,95,29.52,29.37,8,2,0,0.20
2014-12-11,38.0,34.9,32.5,38.0,33.3,30.0,98,94,89,29.74,29.37,8,1,0,0.09
2014-12-12,38.3,34.2,30.0,31.0,29.8,28.0,92,84,74,29.83,29.74,8,2,0,0.00
2014-12-13,41.6,35.4,31.7,31.0,29.0,27.0,92,78,65,29.80,29.71,8,2,0,0.00
2014-12-14,44.2,36.8,32.8,32.0,29.8,28.0,87,76,63,29.85,29.72,6,2,0,0.00
2014-12-15,43.8,34.5,29.5,33.0,30.4,28.0,100,85,63,30.09,29.85,9,1,0,0.00
2014-12-16,42.1,38.3,32.9,41.0,36.0,30.0,97,91,82,30.11,29.87,3,0,0,0.00
2014-12-17,47.6,43.9,41.3,45.0,41.8,35.0,98,92,79,29.86,29.62,10,2,0,0.44
2014-12-18,43.8,39.5,35.8,35.0,32.8,29.0,94,77,65,29.80,29.65,9,3,0,0.03
2014-12-19,36.8,33.8,28.3,29.0,25.5,23.0,80,72,64,30.08,29.80,9,2,0,0.00
2014-12-20,35.1,31.2,26.2,31.0,25.8,22.0,90,80,74,30.25,30.09,5,1,0,0.00
2014-12-21,35.2,33.1,29.7,32.0,28.7,26.0,90,84,77,30.31,30.22,5,0,0,0.00
2014-12-22,43.6,38.1,32.7,41.0,34.6,27.0,97,87,78,30.34,30.23,4,0,0,0.08
2014-12-23,45.8,44.1,41.7,45.0,43.0,39.0,98,96,86,30.25,30.10,8,2,0,0.17
2014-12-24,46.0,43.7,41.1,46.0,43.4,41.0,99,99,98,30.10,29.49,4,0,0,0.51
2014-12-25,59.6,50.0,43.6,60.0,42.5,32.0,100,77,52,29.90,29.41,16,2,0,0.15
2014-12-26,49.4,41.9,32.6,35.0,32.2,30.0,88,69,56,30.10,29.91,12,1,0,0.00
2014-12-27,52.8,42.6,32.8,37.0,34.1,30.0,90,73,53,30.15,29.96,8,1,0,0.00
2014-12-28,52.0,46.4,39.6,44.0,37.4,31.0,88,71,61,29.95,29.70,11,1,0,0.02
2014-12-29,41.5,35.0,28.5,30.0,23.4,13.0,85,64,45,30.16,29.93,5,1,0,0.00
2014-12-30,29.4,24.3,19.3,13.0,8.5,4.0,62,52,35,30.30,30.16,11,2,0,0.00
2014-12-31,30.2,21.8,14.7,12.0,9.1,6.0,76,59,37,30.26,30.07,11,1,0,0.00
2015-1-1,32.8,26.7,17.6,18.0,11.0,9.0,77,53,38,30.06,29.86,10,1,0,0.00
2015-1-2,38.9,34.5,29.6,22.0,18.7,14.0,59,53,48,30.40,29.88,10,2,0,0.00